| time (UTC) | temp F | wind direction | speed MPH | gust MPH | rain 1hr in | rain 24hr in | rain mn in | humidity % | barometer mb |
| 20260905210151 | 74 | 0 | 0.0 | 0.0 | 0.00 | 0.00 | 0.00 | 64 | 1010.0 |
| 20260905200151 | 77 | 285 | 0.0 | 3.0 | 0.00 | 0.00 | 0.00 | 62 | 1009.7 |
| 20260905190151 | 77 | 290 | 2.0 | 5.0 | 0.00 | 0.00 | 0.00 | 61 | 1009.9 |
| 20260905180151 | 77 | 12 | 2.0 | 5.0 | 0.00 | 0.00 | 0.00 | 59 | 1010.2 |
| 20260905170151 | 78 | 8 | 1.0 | 5.0 | 0.00 | 0.00 | 0.00 | 56 | 1010.1 |
| 20260905160151 | 76 | 28 | 3.0 | 7.0 | 0.00 | 0.00 | 0.00 | 61 | 1010.1 |
| 20260905150151 | 76 | 28 | 2.0 | 6.0 | 0.00 | 0.00 | 0.00 | 61 | 1010.3 |
| 20260905130151 | 69 | 333 | 1.0 | 2.0 | 0.00 | 0.00 | 0.00 | 79 | 1010.7 |
| 20260905120151 | 66 | 0 | 0.0 | 0.0 | 0.00 | 0.00 | 0.00 | 85 | 1010.7 |
| 20260905110152 | 63 | 0 | 0.0 | 0.0 | 0.00 | 0.00 | 0.00 | 90 | 1010.2 |
| 20260905100151 | 63 | 0 | 0.0 | 0.0 | 0.00 | 0.00 | 0.00 | 88 | 1009.7 |
| 20260905090151 | 63 | 0 | 0.0 | 0.0 | 0.00 | 0.01 | 0.00 | 88 | 1009.6 |
| 20260905080151 | 64 | 311 | 1.0 | 4.0 | 0.00 | 0.12 | 0.00 | 88 | 1009.5 |
| 20260905070158 | 64 | 321 | 0.0 | 1.0 | 0.00 | 0.12 | 0.00 | 85 | 1009.7 |
| 20260905070151 | 64 | 321 | 0.0 | 1.0 | 0.00 | 0.12 | 0.00 | 85 | 1009.7 |
| 20260905060151 | 65 | 0 | 0.0 | 0.0 | 0.00 | 0.12 | 0.00 | 86 | 1010.2 |
| 20260905050151 | 66 | 93 | 1.0 | 2.0 | 0.00 | 0.12 | 0.00 | 82 | 1010.5 |
| 20260905040151 | 66 | 0 | 0.0 | 0.0 | 0.00 | 0.12 | 0.00 | 86 | 1010.6 |
| 20260905030152 | 67 | 0 | 0.0 | 0.0 | 0.00 | 0.12 | 0.12 | 84 | 1010.4 |
| 20260905020151 | 68 | 0 | 0.0 | 0.0 | 0.00 | 0.12 | 0.12 | 84 | 1010.4 |
| 20260905010153 | 69 | 0 | 0.0 | 0.0 | 0.00 | 0.12 | 0.12 | 81 | 1010.7 |
| 20260905000151 | 72 | 0 | 0.0 | 0.0 | 0.00 | 0.12 | 0.12 | 74 | 1010.4 |
| 20260904230151 | 79 | 0 | 0.0 | 0.0 | 0.00 | 0.12 | 0.12 | 59 | 1010.1 |
| 20260904220153 | 83 | 285 | 1.0 | 6.0 | 0.00 | 0.12 | 0.12 | 47 | 1009.9 |